Regional Weather Roundup
Issued by NWS Kansas City/Pleasant Hill, MO

Home | Current Version | Previous Version | Graphics & Text | Print | Product List | Glossary Off
Versions: 1 2 3 4 5 6 7 8 9 10 11 12 13 14 15 16 17 18 19 20 21 22 23 24 25 26 27 28 29 30 31 32 33 34 35 36 37 38 39 40 41 42 43 44 45 46 47 48 49 50

000
ASUS43 KEAX 221210
RWREAX

WEATHER ROUNDUP FOR EASTERN KANSAS AND NORTHWEST MISSOURI
NATIONAL WEATHER SERVICE KANSAS CITY/PLEASANT HILL MO
600 AM CST SUN JAN 22 2017

KSZ040-057-103>105-MOZ028-029-037-043-221300-
...KANSAS CITY METROPOLITAN AREA...

CITY           SKY/WX    TMP DP  RH WIND       PRES   REMARKS
K.C. INTL      CLOUDY    44  40  85 N10       29.58R
6HR MIN TEMP:  44; 6HR MAX TEMP:  46;

K.C. DOWNTOWN  CLOUDY    46  44  93 N5        29.57R
6HR MIN TEMP:  46; 6HR MAX TEMP:  47; 6HR PCP: TRACE;

LEES SUMMIT    CLOUDY    44  43  96 NE9       29.56R
6HR MIN TEMP:  44; 6HR MAX TEMP:  47; 6HR PCP:  0.19;

OLATHE - IXD   LGT RAIN  45  44  97 N13       29.56R FOG
6HR MIN TEMP:  45; 6HR MAX TEMP:  47; 6HR PCP: TRACE;

OLATHE - OJC   CLOUDY    45  44  97 NE9       29.56R FOG
6HR MIN TEMP:  45; 6HR MAX TEMP:  46; 6HR PCP:  0.04;

LAWRENCE       CLOUDY    45  43  93 NW8       29.58R

$$

MOZ001>008-011>017-020>025-030>033-038>040-044>046-053-054-221300-
...NORTHERN AND CENTRAL MISSOURI...

CITY           SKY/WX    TMP DP  RH WIND       PRES   REMARKS
ST. JOSEPH     CLOUDY    37  37 100 N8        29.62R FOG     WCI  31
6HR MIN TEMP:  37; 6HR MAX TEMP:  43;

MOSBY            N/A     43  41  93 NW6       29.59R
WARRENSBURG    CLOUDY    43  41  93 N9        29.55R
WHITEMAN AFB   DRIZZLE   45  45 100 NE12      29.52S
6HR MIN TEMP:  45; 6HR MAX TEMP:  48; 6HR PCP:  0.01;

CLINTON        CLOUDY    46  46 100 E6        29.54R
SEDALIA        CLOUDY    47  43  86 NE10      29.55R
6HR MIN TEMP:  47; 6HR MAX TEMP:  49; 6HR PCP:  0.03;

WARSAW         NOT AVBL
CHILLICOTHE      N/A     40  39  97 N6        29.59S
6HR MIN TEMP:  40; 6HR MAX TEMP:  45;

KIRKSVILLE     CLOUDY    40  40 100 NE7       29.58R FOG
6HR MIN TEMP:  39; 6HR MAX TEMP:  41; 6HR PCP: TRACE;


$$

MOZ041-047>049-056>058-063>065-088>090-097-221300-
...EASTERN AND SOUTHERN MISSOURI...

CITY           SKY/WX    TMP DP  RH WIND       PRES   REMARKS
ST. LOUIS INTL CLOUDY    49  42  77 NE8       29.52S
6HR MIN TEMP:  48; 6HR MAX TEMP:  55;

SPIRIT OF STL  CLOUDY    48  44  86 N6        29.52R
COLUMBIA       CLOUDY    46  43  89 NE10      29.53R
JEFFERSON CITY CLOUDY    49  43  80 N6        29.52S
ROLLA          CLOUDY    47  45  93 NE7       29.48S
OSAGE BEACH    TSTM      46  46 100 N8        29.51F
SPRINGFIELD    LGT RAIN  50  48  93 NE15      29.41S
BRANSON        CLOUDY    50  50 100 E3        29.39R FOG
JOPLIN         LGT RAIN  48  48 100 N13       29.43R
WEST PLAINS    CLOUDY    54  52  93 NE6       29.43S

$$

IAZ060-094-KSZ022-034>040-054-083-096-NEZ052-066-093-221300-
...KANSAS...SOUTHEAST NEBRASKA AND IOWA...

CITY           SKY/WX    TMP DP  RH WIND       PRES   REMARKS
TOPEKA         CLOUDY    46  41  82 N7        29.60R
6HR MIN TEMP:  45; 6HR MAX TEMP:  46;

MANHATTAN      CLOUDY    41  37  86 N9        29.63R
EMPORIA        CLOUDY    45  43  93 N13       29.56R
CHANUTE        LGT RAIN  49  46  90 N13       29.48R
WICHITA        CLOUDY    45  42  89 N16       29.57R
OMAHA          CLOUDY    32  28  85 N13       29.68R WCI  22
LINCOLN        CLEAR     25  24  96 N6        29.69S WCI  18
FALLS CITY     CLOUDY    34  32  92 N7        29.65R WCI  28
LAMONI         FOG       30  29  96 N6        29.61R VSB 1/2 WCI  24
DES MOINES     CLOUDY    32  31  96 N6        29.64R WCI  26

$$




USA.gov is the U.S. government's official web portal to all federal, state and local government web resources and services.